GW3780 Weather Reports


Display with metric or nautical units.
time (UTC)temp
F
wind
direction
speed
MPH
gust
MPH
rain 1hr
in
rain 24hr
in
rain mn
in
humidity
%
barometer
mb
20260904075700 78 328 1.0 2.0 0.00 0.00 0.00 87 1015.4
20260904075154 78 281 0.0 1.0 0.00 0.00 0.00 87 1015.3
20260904074648 78 297 0.0 1.0 0.00 0.00 0.00 87 1015.4
20260904074143 78 313 1.0 2.0 0.00 0.00 0.00 87 1015.4
20260904073638 78 295 0.0 1.0 0.00 0.00 0.00 86 1015.4
20260904073135 78 324 0.0 1.0 0.00 0.00 0.00 85 1015.3
20260904072630 79 344 0.0 1.0 0.00 0.00 0.00 85 1015.3
20260904072125 79 311 1.0 2.0 0.00 0.00 0.00 85 1015.0
20260904071621 79 316 0.0 1.0 0.00 0.00 0.00 85 1015.2
20260904071115 79 333 0.0 1.0 0.00 0.00 0.00 84 1015.2
20260904070614 79 205 0.0 0.0 0.00 0.00 0.00 84 1014.9
20260904070109 79 322 0.0 1.0 0.00 0.00 0.00 84 1015.0
20260904065604 79 333 0.0 0.0 0.00 0.00 0.00 84 1015.0
20260904065101 80 322 0.0 0.0 0.00 0.00 0.00 83 1015.2
20260904064556 80 22 0.0 0.0 0.00 0.00 0.00 83 1015.2
20260904064055 80 309 1.0 2.0 0.00 0.00 0.00 83 1015.3
20260904063552 80 307 2.0 2.0 0.00 0.00 0.00 82 1015.3
20260904063047 80 299 1.0 2.0 0.00 0.00 0.00 82 1015.4
20260904062543 80 318 0.0 2.0 0.00 0.00 0.00 82 1015.4
20260904062038 81 307 2.0 2.0 0.00 0.00 0.00 81 1015.6
20260904061534 81 133 0.0 2.0 0.00 0.00 0.00 81 1015.5
20260904061031 81 296 1.0 2.0 0.00 0.00 0.00 82 1015.9
20260904060527 81 245 0.0 4.0 0.00 0.00 0.00 83 1015.9
20260904060022 82 296 0.0 2.0 0.00 0.00 0.00 85 1016.3
20260904055517 82 311 3.0 3.0 0.00 0.00 0.00 84 1016.3
20260904055012 82 23 2.0 2.0 0.00 0.00 0.00 84 1016.4
20260904054508 82 309 0.0 9.0 0.00 0.00 0.00 86 1016.3
20260904054004 82 301 1.0 2.0 0.00 0.00 0.00 84 1015.8
20260904053503 82 333 0.0 1.0 0.00 0.00 0.00 83 1015.5
20260904052959 82 304 0.0 2.0 0.00 0.00 0.00 83 1015.3
20260904052455 83 242 0.0 1.0 0.00 0.00 0.00 82 1015.3
20260904051951 83 265 1.0 2.0 0.00 0.00 0.00 81 1015.2
20260904051448 83 212 1.0 2.0 0.00 0.00 0.00 81 1015.3
20260904050946 83 249 1.0 2.0 0.00 0.00 0.00 81 1015.4
20260904050443 83 219 1.0 2.0 0.00 0.00 0.00 81 1015.5
20260904045938 83 309 0.0 2.0 0.00 0.00 0.00 81 1015.7
20260904045432 83 335 0.0 1.0 0.00 0.00 0.00 81 1015.6
20260904044927 83 261 0.0 1.0 0.00 0.00 0.00 82 1015.7
20260904044423 82 315 0.0 1.0 0.00 0.00 0.00 82 1015.7
20260904043919 83 327 0.0 1.0 0.00 0.00 0.00 82 1015.6
20260904043416 83 333 0.0 1.0 0.00 0.00 0.00 82 1015.8
20260904042911 83 306 1.0 1.0 0.00 0.00 0.00 81 1015.6
20260904042407 83 261 0.0 0.0 0.00 0.00 0.00 81 1015.8
20260904041902 83 214 0.0 1.0 0.00 0.00 0.00 80 1015.7
20260904041358 83 231 0.0 1.0 0.00 0.00 0.00 81 1015.7
20260904040854 83 289 0.0 1.0 0.00 0.00 0.00 81 1015.6
20260904040348 84 306 0.0 2.0 0.00 0.00 0.00 80 1015.9
20260904035844 84 303 1.0 1.0 0.00 0.00 0.00 80 1015.7
20260904035341 84 309 0.0 1.0 0.00 0.00 0.00 80 1016.1
20260904034839 84 255 0.0 2.0 0.00 0.00 0.00 80 1015.9
20260904034335 84 304 0.0 1.0 0.00 0.00 0.00 81 1015.6
20260904033831 84 333 0.0 1.0 0.00 0.00 0.00 81 1015.8
20260904033327 84 322 0.0 2.0 0.00 0.00 0.00 81 1015.9
20260904032822 84 254 1.0 1.0 0.00 0.00 0.00 80 1016.2
20260904032317 84 305 1.0 1.0 0.00 0.00 0.00 82 1016.1
20260904031811 84 326 0.0 2.0 0.00 0.00 0.00 82 1016.2
20260904031306 83 315 1.0 1.0 0.00 0.00 0.00 83 1016.2
20260904030802 84 320 1.0 1.0 0.00 0.00 0.00 82 1015.9
20260904030258 84 335 2.0 2.0 0.00 0.00 0.00 82 1016.1
20260904025753 84 326 0.0 2.0 0.00 0.00 0.00 81 1015.9
20260904025248 84 299 0.0 1.0 0.00 0.00 0.00 83 1015.8
20260904024738 84 290 2.0 2.0 0.00 0.00 0.00 82 1015.9
20260904024233 84 293 0.0 1.0 0.00 0.00 0.00 83 1015.9
20260904023730 83 345 0.0 1.0 0.00 0.00 0.00 85 1016.1
20260904023225 83 340 1.0 1.0 0.00 0.00 0.00 85 1015.8
20260904022724 83 312 1.0 1.0 0.00 0.00 0.00 85 1015.9
20260904022221 83 329 0.0 2.0 0.00 0.00 0.00 85 1015.6
20260904021712 83 304 1.0 2.0 0.00 0.00 0.00 85 1015.8
20260904021207 83 340 0.0 2.0 0.00 0.00 0.00 86 1015.6
20260904020703 83 323 0.0 1.0 0.00 0.00 0.00 86 1015.5
20260904020202 83 335 0.0 1.0 0.00 0.00 0.00 86 1016.1
20260904015701 83 315 1.0 1.0 0.00 0.00 0.00 85 1015.8
20260904015201 83 288 0.0 1.0 0.00 0.00 0.00 85 1016.2
20260904014659 83 319 1.0 1.0 0.00 0.00 0.00 86 1016.1
20260904014155 84 306 0.0 1.0 0.00 0.00 0.00 85 1016.2
20260904013652 84 297 0.0 0.0 0.00 0.00 0.00 86 1016.3
20260904013147 84 299 0.0 2.0 0.00 0.00 0.00 86 1016.2
20260904012643 84 294 0.0 1.0 0.00 0.00 0.00 86 1016.1
20260904012141 83 309 0.0 1.0 0.00 0.00 0.00 86 1016.3
20260904011641 84 318 0.0 1.0 0.00 0.00 0.00 87 1016.4
20260904011137 84 309 0.0 0.0 0.00 0.00 0.00 87 1016.3
20260904010632 84 322 0.0 1.0 0.00 0.00 0.00 87 1016.5
20260904010129 84 310 0.0 1.0 0.00 0.00 0.00 87 1016.7
20260904005624 84 309 0.0 1.0 0.00 0.00 0.00 87 1016.4
20260904005119 84 286 1.0 2.0 0.00 0.00 0.00 87 1016.6
20260904004615 84 292 0.0 1.0 0.00 0.00 0.00 87 1016.6
20260904004114 84 297 0.0 0.0 0.00 0.00 0.00 87 1016.7
20260904003611 84 295 1.0 2.0 0.00 0.00 0.00 87 1016.6
20260904003106 84 316 0.0 1.0 0.00 0.00 0.00 86 1016.5
20260904002602 85 315 0.0 1.0 0.00 0.00 0.00 85 1016.6
20260904002056 85 321 0.0 1.0 0.00 0.00 0.00 85 1016.5
20260904001552 85 309 1.0 2.0 0.00 0.00 0.00 85 1016.2
20260904001051 85 318 0.0 2.0 0.00 0.00 0.00 84 1016.2
20260904000545 85 301 0.0 2.0 0.00 0.00 0.00 84 1016.2
20260904000041 85 298 1.0 1.0 0.00 0.00 0.00 84 1015.9
20260903235536 86 309 0.0 1.0 0.00 0.00 0.00 83 1015.6
20260903235032 86 299 0.0 2.0 0.00 0.00 0.00 83 1015.8
20260903234527 86 305 2.0 2.0 0.00 0.00 0.00 81 1015.6
20260903234022 87 317 1.0 1.0 0.00 0.00 0.00 81 1015.6
20260903233518 87 318 1.0 2.0 0.00 0.00 0.00 80 1015.5
20260903233014 87 334 1.0 2.0 0.00 0.00 0.00 80 1015.6
20260903232509 87 318 2.0 2.0 0.00 0.00 0.00 80 1015.9
20260903232009 87 326 2.0 2.0 0.00 0.00 0.00 79 1015.8
20260903231503 88 304 1.0 2.0 0.00 0.00 0.00 78 1015.7
20260903230957 88 314 2.0 2.0 0.00 0.00 0.00 78 1015.5
20260903230453 88 313 1.0 2.0 0.00 0.00 0.00 78 1015.3
20260903225950 88 315 2.0 2.0 0.00 0.00 0.00 78 1015.5
20260903225445 88 310 0.0 2.0 0.00 0.00 0.00 77 1015.6
20260903224941 88 334 0.0 1.0 0.00 0.00 0.00 76 1015.3
20260903224437 88 304 0.0 2.0 0.00 0.00 0.00 76 1015.3
20260903223933 88 333 0.0 1.0 0.00 0.00 0.00 76 1015.4
20260903223432 88 327 0.0 2.0 0.00 0.00 0.00 76 1015.3
20260903222931 87 313 1.0 2.0 0.00 0.00 0.00 75 1015.3
20260903222427 88 322 0.0 1.0 0.00 0.00 0.00 74 1015.3
20260903221920 88 303 1.0 1.0 0.00 0.00 0.00 73 1015.3
20260903221420 88 301 1.0 2.0 0.00 0.00 0.00 72 1015.4
20260903220918 89 332 1.0 2.0 0.00 0.00 0.00 72 1015.4
20260903220412 89 323 1.0 1.0 0.00 0.00 0.00 70 1015.5
20260903215909 89 311 1.0 2.0 0.00 0.00 0.00 69 1015.6
20260903215407 90 318 1.0 2.0 0.00 0.00 0.00 68 1015.6
20260903214904 90 310 2.0 2.0 0.00 0.00 0.00 67 1015.4
20260903214401 91 312 2.0 2.0 0.00 0.00 0.00 67 1015.5
20260903213900 91 293 0.0 2.0 0.00 0.00 0.00 66 1015.7
20260903213355 91 312 1.0 2.0 0.00 0.00 0.00 64 1015.7
20260903212851 91 301 2.0 2.0 0.00 0.00 0.00 63 1015.6
20260903212348 92 297 2.0 2.0 0.00 0.00 0.00 63 1015.6
20260903211847 92 306 0.0 2.0 0.00 0.00 0.00 65 1015.3
20260903211343 92 269 1.0 2.0 0.00 0.00 0.00 61 1015.7
20260903210839 93 284 1.0 3.0 0.00 0.00 0.00 63 1015.7
20260903210333 93 319 0.0 2.0 0.00 0.00 0.00 65 1015.7
20260903205833 92 307 2.0 2.0 0.00 0.00 0.00 68 1015.8
20260903205333 93 323 1.0 2.0 0.00 0.00 0.00 65 1015.9
20260903204828 93 310 0.0 2.0 0.00 0.00 0.00 65 1015.6
20260903204324 93 317 1.0 2.0 0.00 0.00 0.00 65 1015.8
20260903203819 93 299 2.0 2.0 0.00 0.00 0.00 63 1015.7
20260903203315 93 305 2.0 2.0 0.00 0.00 0.00 65 1015.8
20260903202814 93 307 0.0 2.0 0.00 0.00 0.00 61 1016.1
20260903202311 93 315 1.0 2.0 0.00 0.00 0.00 64 1016.1
20260903201810 93 355 1.0 2.0 0.00 0.00 0.00 62 1016.4
20260903201305 94 305 2.0 2.0 0.00 0.00 0.00 67 1016.3
20260903200803 93 326 0.0 1.0 0.00 0.00 0.00 63 1016.3
20260903200259 93 253 0.0 1.0 0.00 0.00 0.00 62 1016.5
20260903195754 93 325 3.0 3.0 0.00 0.00 0.00 62 1016.5
20260903195250 93 319 1.0 2.0 0.00 0.00 0.00 64 1016.5
20260903194745 93 300 2.0 2.0 0.00 0.00 0.00 64 1016.6
20260903194241 94 283 1.0 3.0 0.00 0.00 0.00 59 1016.6
20260903193736 93 324 2.0 2.0 0.00 0.00 0.00 61 1016.8
20260903193232 93 308 2.0 2.0 0.00 0.00 0.00 62 1016.8
20260903192728 93 323 2.0 2.0 0.00 0.00 0.00 61 1017.0
20260903192223 93 289 2.0 3.0 0.00 0.00 0.00 61 1016.7
20260903191719 93 308 1.0 3.0 0.00 0.00 0.00 63 1016.9
20260903191214 93 339 0.0 2.0 0.00 0.00 0.00 66 1016.8
20260903190703 93 328 2.0 2.0 0.00 0.00 0.00 68 1017.1
20260903190203 93 355 1.0 3.0 0.00 0.00 0.00 64 1017.2
20260903185658 94 315 0.0 2.0 0.00 0.00 0.00 65 1017.2
20260903185153 94 222 2.0 2.0 0.00 0.00 0.00 64 1017.4
20260903184649 94 305 2.0 3.0 0.00 0.00 0.00 68 1017.2
20260903184145 94 314 0.0 2.0 0.00 0.00 0.00 66 1017.4
20260903183644 94 217 1.0 2.0 0.00 0.00 0.00 65 1017.4
20260903183139 93 285 2.0 4.0 0.00 0.00 0.00 68 1017.5
20260903182638 93 281 1.0 3.0 0.00 0.00 0.00 67 1017.5
20260903182134 94 294 2.0 2.0 0.00 0.00 0.00 66 1017.6
20260903181632 94 319 2.0 2.0 0.00 0.00 0.00 67 1017.6
20260903181127 93 297 2.0 4.0 0.00 0.00 0.00 67 1017.6
20260903180622 94 288 2.0 3.0 0.00 0.00 0.00 68 1017.8
20260903180116 93 293 0.0 2.0 0.00 0.00 0.00 69 1017.8
20260903175615 92 214 0.0 2.0 0.00 0.00 0.00 71 1018.1
20260903175115 92 301 2.0 3.0 0.00 0.00 0.00 71 1018.2
20260903174610 92 229 2.0 3.0 0.00 0.00 0.00 70 1018.1
20260903174105 91 306 4.0 4.0 0.00 0.00 0.00 71 1018.2
20260903173559 92 326 0.0 1.0 0.00 0.00 0.00 71 1018.1
20260903173056 91 269 0.0 2.0 0.00 0.00 0.00 71 1018.3
20260903172550 91 257 0.0 2.0 0.00 0.00 0.00 72 1018.3
20260903172046 91 296 1.0 2.0 0.00 0.00 0.00 73 1018.2
20260903171540 90 297 0.0 3.0 0.00 0.00 0.00 74 1018.5
20260903171036 90 283 0.0 4.0 0.00 0.00 0.00 75 1018.4
20260903170534 89 318 2.0 3.0 0.00 0.00 0.00 74 1018.5
20260903170031 89 76 0.0 2.0 0.00 0.00 0.00 73 1018.5
20260903165527 89 317 0.0 2.0 0.00 0.00 0.00 74 1018.5
20260903165024 89 309 1.0 2.0 0.00 0.00 0.00 74 1018.6
20260903164523 89 290 0.0 2.0 0.00 0.00 0.00 75 1018.7
20260903164019 89 353 0.0 2.0 0.00 0.00 0.00 76 1018.6
20260903163514 88 326 0.0 2.0 0.00 0.00 0.00 77 1018.7
20260903163010 88 290 0.0 1.0 0.00 0.00 0.00 77 1018.8
20260903162506 88 304 2.0 2.0 0.00 0.00 0.00 78 1018.9
20260903162001 88 295 2.0 2.0 0.00 0.00 0.00 79 1018.9
20260903161457 88 298 1.0 3.0 0.00 0.00 0.00 78 1018.8
20260903160953 87 0 0.0 2.0 0.00 0.00 0.00 79 1018.9
20260903160451 87 299 2.0 2.0 0.00 0.00 0.00 78 1019.2
20260903155951 87 180 0.0 3.0 0.00 0.00 0.00 79 1019.1
20260903155445 87 301 0.0 2.0 0.00 0.00 0.00 80 1018.9
20260903154942 87 304 2.0 2.0 0.00 0.00 0.00 80 1019.0
20260903154437 87 326 0.0 2.0 0.00 0.00 0.00 80 1019.0
20260903153932 87 58 2.0 2.0 0.00 0.00 0.00 81 1018.9
20260903153422 86 84 1.0 3.0 0.00 0.00 0.00 80 1019.0
20260903152919 86 68 0.0 2.0 0.00 0.00 0.00 81 1019.2
20260903152414 86 315 0.0 3.0 0.00 0.00 0.00 82 1019.1
20260903151909 86 30 0.0 2.0 0.00 0.00 0.00 81 1019.1
20260903151404 86 297 1.0 3.0 0.00 0.00 0.00 82 1019.0
20260903150858 86 331 3.0 4.0 0.00 0.00 0.00 81 1019.1
20260903150353 86 303 2.0 3.0 0.00 0.00 0.00 82 1018.9
20260903145847 86 277 1.0 3.0 0.00 0.00 0.00 81 1019.1
20260903145343 85 92 0.0 3.0 0.00 0.00 0.00 81 1018.8
20260903144841 85 286 0.0 2.0 0.00 0.00 0.00 82 1018.9
20260903144332 85 296 2.0 3.0 0.00 0.00 0.00 81 1018.9
20260903143827 85 315 2.0 2.0 0.00 0.00 0.00 80 1018.8
20260903143324 85 308 2.0 3.0 0.00 0.00 0.00 81 1018.8
20260903142819 85 24 3.0 3.0 0.00 0.00 0.00 80 1018.7
20260903142315 85 310 1.0 3.0 0.00 0.00 0.00 80 1018.5
20260903141811 85 307 2.0 3.0 0.00 0.00 0.00 81 1018.7
20260903141307 85 300 1.0 2.0 0.00 0.00 0.00 79 1018.7
20260903140806 85 298 0.0 3.0 0.00 0.00 0.00 80 1018.7
20260903140301 84 317 2.0 2.0 0.00 0.00 0.00 81 1018.5
20260903135757 84 191 1.0 2.0 0.00 0.00 0.00 80 1018.3
20260903135252 84 217 0.0 2.0 0.00 0.00 0.00 80 1018.2
20260903134751 84 333 0.0 0.0 0.00 0.00 0.00 81 1018.2
20260903134247 84 299 1.0 2.0 0.00 0.00 0.00 80 1018.2
20260903133744 84 216 0.0 2.0 0.00 0.00 0.00 81 1018.4
20260903133240 84 336 0.0 1.0 0.00 0.00 0.00 81 1018.5
20260903132740 83 246 0.0 1.0 0.00 0.00 0.00 81 1018.5
20260903132235 83 283 0.0 2.0 0.00 0.00 0.00 85 1018.8
20260903131730 82 296 0.0 2.0 0.00 0.00 0.00 84 1018.8
20260903131224 82 230 0.0 1.0 0.00 0.00 0.00 85 1018.7
20260903130719 82 306 0.0 1.0 0.00 0.00 0.00 87 1018.6
20260903130215 81 205 0.0 2.0 0.00 0.00 0.00 85 1018.7
20260903125712 82 217 1.0 2.0 0.00 0.00 0.00 84 1018.7
20260903125208 82 260 0.0 1.0 0.00 0.00 0.00 84 1019.0
20260903124706 82 310 0.0 1.0 0.00 0.00 0.00 88 1019.0
20260903124201 79 325 0.0 1.0 0.00 0.00 0.00 92 1019.0
20260903123700 78 349 0.0 2.0 0.00 0.00 0.00 94 1019.0
20260903123159 78 202 0.0 1.0 0.00 0.00 0.00 94 1018.9
20260903122653 78 311 0.0 1.0 0.00 0.00 0.00 95 1018.8
20260903122148 77 278 0.0 1.0 0.00 0.00 0.00 96 1018.7
20260903121647 77 217 0.0 1.0 0.00 0.00 0.00 98 1019.1
20260903121143 77 297 0.0 1.0 0.00 0.00 0.00 99 1019.0
20260903120642 76 305 0.0 1.0 0.00 0.00 0.00 99 1018.9
20260903120136 76 306 0.0 2.0 0.00 0.00 0.00 99 1019.0
20260903115634 76 217 0.0 2.0 0.00 0.00 0.00 99 1018.5
20260903115130 76 310 0.0 1.0 0.00 0.00 0.00 99 1018.8
20260903114625 75 242 0.0 1.0 0.00 0.00 0.00 99 1018.7
20260903114121 75 272 0.0 1.0 0.00 0.00 0.00 99 1018.8
20260903113616 75 320 0.0 1.0 0.00 0.00 0.00 99 1018.6
20260903113113 75 4 0.0 1.0 0.00 0.00 0.00 99 1018.6
20260903112609 74 343 0.0 1.0 0.00 0.00 0.00 99 1018.5
20260903112109 74 319 0.0 1.0 0.00 0.00 0.00 99 1018.5
20260903111608 74 331 1.0 1.0 0.00 0.00 0.00 99 1018.5
20260903111104 74 332 0.0 1.0 0.00 0.00 0.00 99 1018.5
20260903110559 74 332 0.0 1.0 0.00 0.00 0.00 99 1018.3
20260903110054 74 323 1.0 2.0 0.00 0.00 0.00 99 1018.4
20260903105549 74 333 0.0 0.0 0.00 0.00 0.00 99 1018.2
20260903105043 74 326 0.0 1.0 0.00 0.00 0.00 99 1018.3
20260903104538 74 329 0.0 2.0 0.00 0.00 0.00 99 1018.2
20260903104034 74 327 1.0 2.0 0.00 0.00 0.00 99 1018.3
20260903103529 74 0 0.0 1.0 0.00 0.00 0.00 99 1018.3
20260903103026 74 331 0.0 2.0 0.00 0.00 0.00 99 1018.2
20260903102520 74 304 0.0 0.0 0.00 0.00 0.00 99 1018.2
20260903102020 75 327 0.0 0.0 0.00 0.00 0.00 99 1018.3
20260903101514 75 353 0.0 0.0 0.00 0.00 0.00 99 1018.2
20260903101010 75 336 0.0 1.0 0.00 0.00 0.00 99 1018.3
20260903100504 75 2 0.0 2.0 0.00 0.00 0.00 99 1018.4
20260903100002 75 343 0.0 2.0 0.00 0.00 0.00 99 1018.5
20260903095456 75 326 2.0 2.0 0.00 0.00 0.00 99 1018.3
20260903094951 75 326 0.0 1.0 0.00 0.00 0.00 99 1018.3
20260903094451 75 334 0.0 1.0 0.00 0.00 0.00 99 1018.3
20260903093947 75 296 0.0 0.0 0.00 0.00 0.00 99 1018.2
20260903093442 75 353 0.0 0.0 0.00 0.00 0.00 99 1018.1
20260903092938 75 333 0.0 0.0 0.00 0.00 0.00 99 1018.4
20260903092437 75 331 1.0 1.0 0.00 0.00 0.00 99 1018.2
20260903091936 75 339 0.0 0.0 0.00 0.00 0.00 99 1018.2
20260903091435 75 339 0.0 0.0 0.00 0.00 0.00 99 1018.1
20260903090930 75 283 0.0 1.0 0.00 0.00 0.00 99 1018.1
20260903090426 75 337 0.0 2.0 0.00 0.00 0.00 99 1018.0
20260903085924 75 320 1.0 1.0 0.00 0.00 0.00 99 1018.0
20260903085423 75 331 0.0 1.0 0.00 0.00 0.00 99 1017.9
20260903084922 75 308 1.0 1.0 0.00 0.00 0.00 99 1017.7
20260903084421 75 298 0.0 0.0 0.00 0.00 0.00 99 1017.8
20260903083916 75 350 0.0 2.0 0.00 0.00 0.00 99 1017.6
20260903083413 75 326 0.0 1.0 0.00 0.00 0.00 99 1017.7
20260903082911 75 315 0.0 1.0 0.00 0.00 0.00 99 1017.6
20260903082407 75 333 0.0 1.0 0.00 0.00 0.00 99 1017.5
20260903081902 75 333 0.0 0.0 0.00 0.00 0.00 99 1017.6
20260903081356 75 333 0.0 1.0 0.00 0.00 0.00 99 1017.7
20260903080853 75 297 0.0 0.0 0.00 0.00 0.00 99 1017.9
20260903080349 75 315 0.0 0.0 0.00 0.00 0.00 99 1017.8
20260903075844 75 297 0.0 1.0 0.00 0.00 0.00 99 1017.9